Time,TemperatureF,DewpointF,PressureIn,WindDirection,WindDirectionDegrees,WindSpeedMPH,WindSpeedGustMPH,Humidity,HourlyPrecipIn,Conditions,Clouds,dailyrainin,SoftwareType,DateUTC
2013-03-18 00:00:00,47.4,46.0,30.00,SSE,153,2.0,2.0,96,0.00,,,0.00,,2013-03-18 07:00:00,
2013-03-18 00:10:00,47.4,46.0,30.00,SSE,153,2.0,2.0,96,0.00,,,0.00,,2013-03-18 07:10:00,
2013-03-18 00:20:00,47.4,46.0,30.00,SSE,153,0.0,0.0,96,0.00,,,0.00,,2013-03-18 07:20:00,
2013-03-18 00:30:00,47.5,46.0,29.99,SSE,153,0.0,0.0,96,0.00,,,0.00,,2013-03-18 07:30:00,
2013-03-18 00:40:00,48.9,48.0,29.99,SSE,153,0.0,1.0,96,0.00,,,0.00,,2013-03-18 07:40:00,
2013-03-18 00:50:00,49.6,47.0,29.99,SSE,153,1.0,2.0,92,0.00,,,0.00,,2013-03-18 07:50:00,
2013-03-18 01:00:00,51.4,47.0,30.00,SSW,200,3.0,5.0,86,0.00,,,0.00,,2013-03-18 08:00:00,
2013-03-18 01:10:00,51.9,47.0,30.00,SSW,200,1.0,4.0,82,0.00,,,0.00,,2013-03-18 08:10:00,
2013-03-18 01:20:00,52.0,46.0,30.00,SSW,200,0.0,0.0,79,0.00,,,0.00,,2013-03-18 08:20:00,
2013-03-18 01:30:00,51.4,46.0,30.00,SSW,200,1.0,2.0,81,0.00,,,0.00,,2013-03-18 08:30:00,
2013-03-18 01:40:00,49.5,45.0,30.00,SSW,200,1.0,3.0,86,0.00,,,0.00,,2013-03-18 08:40:00,
2013-03-18 01:50:00,49.3,46.0,30.01,SSW,200,0.0,0.0,88,0.00,,,0.00,,2013-03-18 08:50:00,
2013-03-18 02:00:00,49.2,46.0,30.01,SSW,200,0.0,0.0,89,0.00,,,0.00,,2013-03-18 09:00:00,
2013-03-18 02:10:00,48.6,46.0,30.00,SSW,200,0.0,0.0,89,0.00,,,0.00,,2013-03-18 09:10:00,
2013-03-18 02:20:00,48.1,46.0,30.00,SSW,200,4.0,5.0,91,0.00,,,0.00,,2013-03-18 09:20:00,
2013-03-18 02:30:00,48.2,46.0,30.01,WSW,250,5.0,6.0,93,0.00,,,0.00,,2013-03-18 09:30:00,
2013-03-18 02:40:00,48.4,46.0,30.01,West,277,3.0,4.0,92,0.00,,,0.00,,2013-03-18 09:40:00,
2013-03-18 02:50:00,48.3,46.0,30.01,West,277,2.0,2.0,91,0.00,,,0.00,,2013-03-18 09:50:00,
2013-03-18 03:00:00,47.6,45.0,30.00,West,277,1.0,2.0,92,0.00,,,0.00,,2013-03-18 10:00:00,
2013-03-18 03:10:00,47.1,45.0,29.99,NW,320,1.0,2.0,93,0.00,,,0.00,,2013-03-18 10:10:00,
2013-03-18 03:20:00,47.5,46.0,30.00,NW,320,0.0,0.0,95,0.00,,,0.00,,2013-03-18 10:20:00,
2013-03-18 03:30:00,48.2,47.0,29.99,NW,320,0.0,0.0,95,0.00,,,0.00,,2013-03-18 10:30:00,
2013-03-18 03:40:00,48.6,47.0,29.99,NW,320,1.0,3.0,94,0.00,,,0.00,,2013-03-18 10:40:00,
2013-03-18 03:50:00,48.8,46.0,29.99,WSW,250,4.0,6.0,91,0.00,,,0.00,,2013-03-18 10:50:00,
2013-03-18 04:00:00,46.6,45.0,29.99,WSW,248,4.0,5.0,93,0.00,,,0.00,,2013-03-18 11:00:00,
2013-03-18 04:10:00,46.4,45.0,29.99,WSW,252,3.0,4.0,94,0.00,,,0.00,,2013-03-18 11:10:00,
2013-03-18 04:20:00,46.6,45.0,29.99,WSW,252,2.0,3.0,95,0.00,,,0.00,,2013-03-18 11:20:00,
2013-03-18 04:30:00,47.0,46.0,29.99,WSW,252,5.0,5.0,95,0.00,,,0.00,,2013-03-18 11:30:00,
2013-03-18 04:40:00,46.1,44.0,29.99,WSW,253,4.0,4.0,94,0.00,,,0.00,,2013-03-18 11:40:00,
2013-03-18 04:50:00,46.3,45.0,29.99,WSW,253,1.0,2.0,95,0.00,,,0.00,,2013-03-18 11:50:00,
2013-03-18 05:00:00,47.7,47.0,29.99,WSW,253,1.0,1.0,96,0.00,,,0.00,,2013-03-18 12:00:00,
2013-03-18 05:10:00,48.5,47.0,29.99,SSW,202,4.0,4.0,95,0.00,,,0.00,,2013-03-18 12:10:00,
2013-03-18 05:20:00,49.6,47.0,29.99,South,169,0.0,0.0,91,0.00,,,0.00,,2013-03-18 12:20:00,
2013-03-18 05:30:00,49.1,46.0,29.99,South,169,1.0,2.0,90,0.00,,,0.00,,2013-03-18 12:30:00,
2013-03-18 05:40:00,48.8,46.0,30.00,South,169,0.0,0.0,90,0.00,,,0.00,,2013-03-18 12:40:00,
2013-03-18 05:50:00,48.7,46.0,30.00,South,169,0.0,1.0,90,0.00,,,0.00,,2013-03-18 12:50:00,
2013-03-18 06:00:00,47.8,45.0,29.99,SSE,165,2.0,2.0,89,0.00,,,0.00,,2013-03-18 13:00:00,
2013-03-18 06:10:00,47.1,45.0,29.98,SSE,165,0.0,0.0,91,0.00,,,0.00,,2013-03-18 13:10:00,
2013-03-18 06:20:00,46.8,45.0,29.99,SSE,165,0.0,0.0,92,0.00,,,0.00,,2013-03-18 13:20:00,
2013-03-18 06:30:00,48.8,45.0,30.00,South,189,7.0,10.0,88,0.00,,,0.00,,2013-03-18 13:30:00,
2013-03-18 06:40:00,51.1,44.0,30.00,South,170,0.0,1.0,76,0.00,,,0.00,,2013-03-18 13:40:00,
2013-03-18 06:50:00,52.5,43.0,30.00,South,173,2.0,3.0,69,0.00,,,0.00,,2013-03-18 13:50:00,
2013-03-18 07:00:00,52.1,43.0,30.01,South,171,0.0,0.0,71,0.00,,,0.00,,2013-03-18 14:00:00,
2013-03-18 07:10:00,51.1,43.0,30.01,South,176,3.0,3.0,74,0.00,,,0.00,,2013-03-18 14:10:00,
2013-03-18 07:20:00,49.4,44.0,30.01,SSW,208,1.0,3.0,82,0.00,,,0.00,,2013-03-18 14:20:00,
2013-03-18 07:30:00,49.6,44.0,30.01,SSW,208,1.0,2.0,80,0.00,,,0.00,,2013-03-18 14:30:00,
2013-03-18 07:40:00,50.1,45.0,30.02,SSW,208,7.0,7.0,82,0.00,,,0.00,,2013-03-18 14:40:00,
2013-03-18 07:50:00,48.2,45.0,30.02,SSW,210,6.0,6.0,87,0.00,,,0.00,,2013-03-18 14:50:00,
2013-03-18 08:00:00,48.2,45.0,30.03,WNW,288,4.0,6.0,88,0.00,,,0.00,,2013-03-18 15:00:00,
2013-03-18 08:10:00,48.8,45.0,30.03,WNW,288,2.0,2.0,87,0.00,,,0.00,,2013-03-18 15:10:00,
2013-03-18 08:20:00,48.6,45.0,30.03,WNW,288,2.0,3.0,88,0.00,,,0.00,,2013-03-18 15:20:00,
2013-03-18 08:30:00,48.6,46.0,30.04,WNW,288,0.0,0.0,90,0.00,,,0.00,,2013-03-18 15:30:00,
2013-03-18 08:40:00,49.4,46.0,30.04,WNW,288,0.0,0.0,89,0.00,,,0.00,,2013-03-18 15:40:00,
2013-03-18 08:50:00,51.0,48.0,30.04,WNW,288,0.0,0.0,88,0.00,,,0.00,,2013-03-18 15:50:00,
2013-03-18 09:00:00,52.8,49.0,30.04,WNW,288,0.0,0.0,87,0.00,,,0.00,,2013-03-18 16:00:00,
2013-03-18 09:10:00,54.1,48.0,30.04,WNW,288,0.0,0.0,80,0.00,,,0.00,,2013-03-18 16:10:00,
2013-03-18 09:20:00,55.3,48.0,30.04,WNW,288,0.0,0.0,75,0.00,,,0.00,,2013-03-18 16:20:00,
2013-03-18 09:30:00,56.1,48.0,30.04,WNW,288,0.0,0.0,73,0.00,,,0.00,,2013-03-18 16:30:00,
2013-03-18 09:40:00,57.6,51.0,30.04,WNW,288,0.0,0.0,80,0.00,,,0.00,,2013-03-18 16:40:00,
2013-03-18 09:50:00,57.0,47.0,30.05,West,265,4.0,4.0,69,0.00,,,0.00,,2013-03-18 16:50:00,
2013-03-18 10:00:00,55.6,46.0,30.05,WSW,255,2.0,3.0,70,0.00,,,0.00,,2013-03-18 17:00:00,
2013-03-18 10:10:00,57.4,50.0,30.05,WSW,255,1.0,2.0,75,0.00,,,0.00,,2013-03-18 17:10:00,
2013-03-18 10:20:00,58.9,51.0,30.05,ENE,69,2.0,3.0,74,0.00,,,0.00,,2013-03-18 17:20:00,
2013-03-18 10:30:00,57.2,49.0,30.05,NW,306,3.0,3.0,75,0.00,,,0.00,,2013-03-18 17:30:00,
2013-03-18 10:40:00,58.1,46.0,30.05,West,273,6.0,8.0,65,0.00,,,0.00,,2013-03-18 17:40:00,
2013-03-18 10:50:00,57.7,47.0,30.06,West,273,9.0,9.0,67,0.00,,,0.00,,2013-03-18 17:50:00,
2013-03-18 11:00:00,57.5,48.0,30.06,WNW,284,6.0,7.0,70,0.00,,,0.00,,2013-03-18 18:00:00,
2013-03-18 11:10:00,57.7,49.0,30.06,West,277,10.0,11.0,72,0.00,,,0.00,,2013-03-18 18:10:00,
2013-03-18 11:20:00,54.8,49.0,30.07,West,262,12.0,16.0,82,0.00,,,0.00,,2013-03-18 18:20:00,
2013-03-18 11:30:00,53.0,49.0,30.07,West,276,11.0,15.0,86,0.00,,,0.00,,2013-03-18 18:30:00,
2013-03-18 11:40:00,52.6,49.0,30.07,WNW,284,10.0,12.0,88,0.00,,,0.00,,2013-03-18 18:40:00,
2013-03-18 11:50:00,54.0,50.0,30.06,WNW,301,5.0,7.0,85,0.00,,,0.00,,2013-03-18 18:50:00,
2013-03-18 12:00:00,56.2,50.0,30.06,NW,307,4.0,6.0,79,0.00,,,0.00,,2013-03-18 19:00:00,
2013-03-18 12:10:00,58.0,49.0,30.05,NW,318,5.0,7.0,72,0.00,,,0.00,,2013-03-18 19:10:00,
2013-03-18 12:20:00,58.8,49.0,30.05,WNW,289,5.0,5.0,70,0.00,,,0.00,,2013-03-18 19:20:00,
2013-03-18 12:30:00,59.3,48.0,30.05,NW,313,4.0,6.0,66,0.00,,,0.00,,2013-03-18 19:30:00,
2013-03-18 12:40:00,60.6,47.0,30.05,WNW,303,7.0,7.0,61,0.00,,,0.00,,2013-03-18 19:40:00,
2013-03-18 12:50:00,62.0,48.0,30.05,WNW,288,5.0,7.0,59,0.00,,,0.00,,2013-03-18 19:50:00,
2013-03-18 13:00:00,62.6,46.0,30.03,NW,304,4.0,5.0,54,0.00,,,0.00,,2013-03-18 20:00:00,
2013-03-18 13:10:00,63.1,49.0,30.03,WNW,301,7.0,7.0,60,0.00,,,0.00,,2013-03-18 20:10:00,
2013-03-18 13:20:00,62.2,45.0,30.04,WNW,285,9.0,11.0,54,0.00,,,0.00,,2013-03-18 20:20:00,
2013-03-18 13:30:00,61.6,46.0,30.02,WNW,288,5.0,5.0,57,0.00,,,0.00,,2013-03-18 20:30:00,
2013-03-18 13:40:00,62.3,44.0,30.01,NW,304,4.0,5.0,52,0.00,,,0.00,,2013-03-18 20:40:00,
2013-03-18 13:50:00,63.1,43.0,30.01,NW,317,1.0,4.0,48,0.00,,,0.00,,2013-03-18 20:50:00,
2013-03-18 14:00:00,63.4,44.0,30.00,NW,317,5.0,5.0,49,0.00,,,0.00,,2013-03-18 21:00:00,
2013-03-18 14:10:00,63.6,45.0,29.99,NW,317,3.0,3.0,50,0.00,,,0.00,,2013-03-18 21:10:00,
2013-03-18 14:20:00,63.4,44.0,29.99,West,276,8.0,10.0,50,0.00,,,0.00,,2013-03-18 21:20:00,
2013-03-18 14:30:00,62.6,44.0,29.99,WNW,286,9.0,10.0,51,0.00,,,0.00,,2013-03-18 21:30:00,
2013-03-18 14:40:00,62.1,44.0,29.99,WNW,286,5.0,5.0,52,0.00,,,0.00,,2013-03-18 21:40:00,
2013-03-18 14:50:00,63.6,46.0,29.99,NW,306,5.0,5.0,52,0.00,,,0.00,,2013-03-18 21:50:00,
2013-03-18 15:00:00,63.8,45.0,29.98,NW,307,2.0,4.0,51,0.00,,,0.00,,2013-03-18 22:00:00,
2013-03-18 15:10:00,64.0,44.0,29.97,NW,319,3.0,4.0,48,0.00,,,0.00,,2013-03-18 22:10:00,
2013-03-18 15:20:00,63.6,45.0,29.96,NW,321,2.0,4.0,50,0.00,,,0.00,,2013-03-18 22:20:00,
2013-03-18 15:30:00,64.1,47.0,29.96,NW,321,1.0,3.0,54,0.00,,,0.00,,2013-03-18 22:30:00,
2013-03-18 15:40:00,65.1,46.0,29.96,NW,306,2.0,3.0,50,0.00,,,0.00,,2013-03-18 22:40:00,
2013-03-18 15:50:00,65.9,47.0,29.96,WNW,289,4.0,6.0,50,0.00,,,0.00,,2013-03-18 22:50:00,
2013-03-18 16:00:00,64.8,47.0,29.97,West,268,11.0,12.0,53,0.00,,,0.00,,2013-03-18 23:00:00,
2013-03-18 16:10:00,58.8,46.0,29.98,West,261,15.0,16.0,63,0.00,,,0.00,,2013-03-18 23:10:00,
2013-03-18 16:20:00,53.0,46.0,29.99,West,260,27.0,27.0,77,0.00,,,0.00,,2013-03-18 23:20:00,
2013-03-18 16:30:00,51.3,47.0,30.00,West,273,27.0,27.0,86,0.00,,,0.00,,2013-03-18 23:30:00,
2013-03-18 16:40:00,51.0,48.0,30.01,West,277,27.0,31.0,88,0.00,,,0.00,,2013-03-18 23:40:00,
2013-03-18 16:50:00,52.0,47.0,30.00,West,281,21.0,23.0,83,0.00,,,0.00,,2013-03-18 23:50:00,
2013-03-18 17:00:00,53.3,46.0,30.01,West,281,13.0,17.0,76,0.00,,,0.00,,2013-03-19 00:00:00,
2013-03-18 17:10:00,54.3,45.0,30.01,WNW,293,9.0,12.0,71,0.00,,,0.00,,2013-03-19 00:10:00,
2013-03-18 17:20:00,55.2,44.0,30.00,NW,309,6.0,8.0,66,0.00,,,0.00,,2013-03-19 00:20:00,
2013-03-18 17:30:00,56.1,44.0,30.00,NW,313,3.0,5.0,64,0.00,,,0.00,,2013-03-19 00:30:00,
2013-03-18 17:40:00,57.5,44.0,30.00,WNW,292,5.0,6.0,60,0.00,,,0.00,,2013-03-19 00:40:00,
2013-03-18 17:50:00,55.4,45.0,30.01,West,261,24.0,29.0,68,0.00,,,0.00,,2013-03-19 00:50:00,
2013-03-18 18:00:00,49.3,47.0,30.02,West,266,25.0,27.0,93,0.00,,,0.00,,2013-03-19 01:00:00,
2013-03-18 18:10:00,49.2,48.0,30.03,West,270,25.0,28.0,94,0.00,,,0.00,,2013-03-19 01:10:00,
2013-03-18 18:20:00,49.4,47.0,30.03,WNW,300,18.0,18.0,93,0.00,,,0.00,,2013-03-19 01:20:00,
2013-03-18 18:30:00,49.5,48.0,30.03,NW,311,13.0,19.0,93,0.00,,,0.00,,2013-03-19 01:30:00,
2013-03-18 18:40:00,49.6,48.0,30.03,NW,318,6.0,6.0,93,0.00,,,0.00,,2013-03-19 01:40:00,
2013-03-18 18:50:00,49.9,48.0,30.03,WNW,303,5.0,5.0,92,0.00,,,0.00,,2013-03-19 01:50:00,
2013-03-18 19:00:00,50.3,48.0,30.02,WNW,303,4.0,4.0,92,0.00,,,0.00,,2013-03-19 02:00:00,
2013-03-18 19:10:00,50.6,47.0,30.02,West,270,8.0,9.0,89,0.00,,,0.00,,2013-03-19 02:10:00,
2013-03-18 19:20:00,50.1,47.0,30.01,West,273,0.0,1.0,90,0.00,,,0.00,,2013-03-19 02:20:00,
2013-03-18 19:30:00,52.4,47.0,30.02,WNW,294,2.0,3.0,82,0.00,,,0.00,,2013-03-19 02:30:00,
2013-03-18 19:40:00,51.7,47.0,30.02,WNW,298,3.0,3.0,84,0.00,,,0.00,,2013-03-19 02:40:00,
2013-03-18 19:50:00,51.0,47.0,30.01,WNW,300,2.0,2.0,86,0.00,,,0.00,,2013-03-19 02:50:00,
2013-03-18 20:00:00,50.7,47.0,30.02,WNW,300,0.0,0.0,87,0.00,,,0.00,,2013-03-19 03:00:00,
2013-03-18 20:10:00,50.3,47.0,30.02,WNW,300,0.0,0.0,88,0.00,,,0.00,,2013-03-19 03:10:00,
2013-03-18 20:20:00,50.3,47.0,30.02,WNW,300,0.0,0.0,88,0.00,,,0.00,,2013-03-19 03:20:00,
2013-03-18 20:30:00,50.1,47.0,30.02,WNW,300,0.0,0.0,89,0.00,,,0.00,,2013-03-19 03:30:00,
2013-03-18 20:40:00,50.8,47.0,30.02,WNW,301,1.0,2.0,86,0.00,,,0.00,,2013-03-19 03:40:00,
2013-03-18 20:50:00,50.9,47.0,30.03,SW,232,3.0,4.0,86,0.00,,,0.00,,2013-03-19 03:50:00,
2013-03-18 21:10:00,48.6,47.0,30.03,West,261,15.0,15.0,95,0.00,,,0.00,,2013-03-19 04:10:00,
2013-03-18 21:20:00,48.3,47.0,30.03,West,268,13.0,15.0,96,0.00,,,0.00,,2013-03-19 04:20:00,
2013-03-18 21:30:00,48.2,47.0,30.04,NW,316,5.0,9.0,96,0.00,,,0.00,,2013-03-19 04:30:00,
2013-03-18 21:40:00,48.2,47.0,30.04,NW,318,7.0,7.0,96,0.00,,,0.00,,2013-03-19 04:40:00,
2013-03-18 21:50:00,48.3,47.0,30.04,NNW,331,4.0,5.0,96,0.00,,,0.00,,2013-03-19 04:50:00,
2013-03-18 22:00:00,48.1,47.0,30.04,NE,44,2.0,2.0,96,0.00,,,0.00,,2013-03-19 05:00:00,
2013-03-18 22:10:00,48.2,47.0,30.04,ESE,103,5.0,7.0,96,0.00,,,0.00,,2013-03-19 05:10:00,
2013-03-18 22:20:00,48.2,47.0,30.03,ESE,111,9.0,9.0,96,0.00,,,0.00,,2013-03-19 05:20:00,
2013-03-18 22:30:00,48.8,48.0,30.04,ESE,121,12.0,12.0,96,0.00,,,0.00,,2013-03-19 05:30:00,
2013-03-18 22:40:00,49.6,48.0,30.03,ESE,121,11.0,13.0,95,0.00,,,0.00,,2013-03-19 05:40:00,
2013-03-18 22:50:00,49.0,47.0,30.03,South,172,1.0,4.0,94,0.00,,,0.00,,2013-03-19 05:50:00,
2013-03-18 23:00:00,48.7,47.0,30.03,SSE,155,7.0,7.0,95,0.00,,,0.00,,2013-03-19 06:00:00,
2013-03-18 23:10:00,48.8,48.0,30.02,SE,142,12.0,14.0,96,0.00,,,0.00,,2013-03-19 06:10:00,
2013-03-18 23:20:00,48.9,48.0,30.04,South,190,4.0,7.0,95,0.00,,,0.00,,2013-03-19 06:20:00,
2013-03-18 23:30:00,48.8,48.0,30.04,South,183,0.0,3.0,96,0.00,,,0.00,,2013-03-19 06:30:00,
2013-03-18 23:40:00,48.9,48.0,30.04,SE,144,5.0,5.0,96,0.00,,,0.00,,2013-03-19 06:40:00,
2013-03-18 23:50:00,49.0,48.0,30.04,SE,134,5.0,5.0,96,0.00,,,0.00,,2013-03-19 06:50:00,